This is the latest recevied weather packets stored in our database for station/object BRIVER. If no packets are shown the sender has not sent any weather packets the latest 10 day(s).
| Time | Temp. | Humidity | Pressure | Rain* | Wind** | Luminosity | Snow |
|---|---|---|---|---|---|---|---|
| 1788138096 | 64° F | 52% | 760.9 mmHg | 0 in | - | - | - |
| 1788137860 | 64° F | 53% | 760.9 mmHg | 0 in | - | - | - |
| 1788137797 | 64° F | 52% | 761 mmHg | 0 in | - | - | - |
| 1788137497 | 64° F | 50% | 760.9 mmHg | 0 in | - | - | - |
| 1788137317 | 64° F | 49% | 761 mmHg | 0 in | - | - | - |
| 1788137197 | 64° F | 51% | 760.9 mmHg | 0 in | - | - | - |
| 1788136897 | 64° F | 49% | 760.9 mmHg | 0 in | - | - | - |
| 1788136777 | 65° F | 48% | 761 mmHg | 0 in | - | - | - |
| 1788136597 | 65° F | 48% | 761.1 mmHg | 0 in | - | - | - |
| 1788136297 | 65° F | 47% | 761 mmHg | 0 in | - | - | - |
| 1788136237 | 65° F | 47% | 761 mmHg | 0 in | - | - | - |
| 1788135997 | 65° F | 46% | 761.1 mmHg | 0 in | - | - | - |
| 1788135697 | 64° F | 46% | 761.2 mmHg | 0 in | - | - | - |
| 1788135397 | 65° F | 47% | 761.2 mmHg | 0 in | - | - | - |
| 1788135158 | 65° F | 48% | 761.2 mmHg | 0 in | - | - | - |
| 1788135097 | 65° F | 48% | 761.2 mmHg | 0 in | - | - | - |
| 1788134797 | 65° F | 48% | 761.3 mmHg | 0 in | - | - | - |
| 1788134618 | 65° F | 48% | 761.2 mmHg | 0 in | - | - | - |
| 1788134497 | 65° F | 46% | 761.2 mmHg | 0 in | - | - | - |
| 1788134197 | 65° F | 49% | 761.2 mmHg | 0 in | - | - | - |
| 1788133897 | 65° F | 49% | 761.4 mmHg | 0 in | - | - | - |
| 1788133597 | 65° F | 48% | 761.3 mmHg | 0 in | - | - | - |
| 1788133539 | 65° F | 46% | 761.4 mmHg | 0 in | - | - | - |
| 1788133297 | 65° F | 48% | 761.5 mmHg | 0 in | - | - | - |
| 1788132997 | 65° F | 49% | 761.5 mmHg | 0 in | - | - | - |
* Rain latest hour (hover to see other rain measurements)
** Current wind speed in m/s (hover to see current wind gust speed)